SCP
-1 -1 -0 -1 -1 -1 -1 -0 -0 -0 0 0 0 0 0 0 0 0 0 0 0 0 0 0 0 0 0 0 0 -0 -0 -0 -0 -0 0 0 -0 0 0 0 -0 -0 0
-1 -1 -0 -0 -1 -2 -1 -0 -0 -0 -0 0 0 0 0 0 0 0 0 0 0 0 0 0 0 0 0 0 -0 0 0 -0 -0 -0 0 -0 -0 -0 -0 -0 -0 -0 0
-1 -1 -0 -0 -1 -3 -1 -1 -1 -1 -0 -0 0 0 0 0 1 0 0 0 0 0 0 1 0 0 0 -0 -0 -0 0 0 -0 0 0 0 0 0 0 -0 0 0 -0
-0 -1 -1 -0 -0 -3 -2 -1 -1 -1 -0 -0 0 0 0 0 0 0 0 0 0 0 0 0 1 0 0 1 -0 0 0 0 0 0 0 0 0 0 0 0 0 0 0
-0 -2 -2 -0 -0 -1 -2 -2 -2 -1 -0 -0 -0 0 0 -0 0 0 0 0 0 0 0 0 0 1 0 0 0 0 -0 0 0 -0 0 0 0 0 0 0 0 0 0
-0 -2 -1 -1 -0 -0 -1 -1 -2 -1 -1 -0 -0 -0 -0 -0 0 0 0 0 0 0 0 0 1 1 0 0 0 0 -0 -0 0 0 0 0 0 0 0 0 0 0 0
-0 -1 -1 -1 -0 -1 -1 -1 -3 -2 -1 -1 -0 -0 -0 -0 0 0 0 0 0 0 0 0 1 1 0 0 0 0 0 0 0 0 0 0 0 0 0 0 0 0 0
-0 -0 -1 -1 -1 -1 -1 -1 -2 -3 -2 -1 -1 -0 -0 0 0 1 0 0 0 0 1 0 0 1 1 0 0 0 0 0 0 0 0 0 0 0 0 0 0 -0 -0
-0 -0 -0 -1 -1 -1 -1 -1 -2 -3 -2 -2 -1 -1 -0 -0 0 0 0 0 -0 0 0 0 0 0 1 0 0 0 0 0 0 0 0 0 -0 0 0 0 0 0 0
0 -0 -0 -0 -1 -0 -0 -1 -1 -2 -2 -1 -1 -1 -0 -0 -0 0 0 0 0 -0 0 0 0 0 0 0 1 0 0 0 0 0 0 0 0 0 -0 0 0 0 0
0 0 0 -0 -1 -0 -1 -1 -1 -2 -1 -1 -1 -1 -0 -0 -0 -0 -0 0 0 0 0 0 0 0 0 0 0 0 0 0 0 0 0 0 -0 -0 -0 0 0 0 0
0 0 0 0 -0 -1 -0 -1 -1 -2 -2 -1 -0 -1 -1 -0 -1 -0 0 -0 0 0 0 1 1 0 0 0 1 0 0 0 0 0 0 0 0 0 0 0 0 0 0
0 0 0 0 0 -0 -0 -0 -1 -1 -2 -1 -1 -1 -0 -0 -0 -1 -0 -0 0 0 1 0 0 0 1 1 1 1 0 0 0 0 0 0 0 0 1 0 0 0 0
0 0 0 0 0 0 0 1 -0 -0 -1 -1 -1 -1 -1 -1 -0 -0 -0 0 0 0 0 0 0 0 0 0 0 1 0 0 0 0 0 0 0 0 1 0 0 0 0
1 1 1 2 2 3 2 2 1 0 -0 -1 -2 -2 -1 -1 -0 0 -0 0 0 0 0 0 0 0 0 0 0 0 0 0 0 0 0 0 0 0 1 1 1 1 1
3 4 3 3 3 4 5 3 3 3 2 1 -0 -0 -1 -0 -0 0 0 0 1 1 1 1 1 0 0 0 0 0 0 0 0 0 1 0 0 0 0 0 0 1 1
4 4 7 9 9 2 2 2 2 4 5 4 3 2 1 1 0 0 0 1 0 1 1 1 1 1 1 0 0 0 0 0 0 0 1 0 0 0 1 0 0 0 0
2 4 4 5 7 6 2 2 2 2 5 6 5 5 4 3 2 1 1 0 0 1 1 1 1 1 1 1 0 0 0 1 0 0 1 1 1 1 1 1 3 1 1
1 1 1 3 5 5 9 6 4 4 4 5 5 4 5 3 2 2 2 2 2 1 1 1 1 1 1 1 1 0 1 1 1 1 0 0 1 1 0 2 2 2 1
1 1 1 0 2 4 3 5 5 4 5 4 3 3 3 3 2 2 2 3 3 2 1 1 1 1 1 1 1 0 1 1 1 1 0 0 0 0 0 1 1 1 1
1 0 1 2 1 2 2 2 3 4 4 5 5 4 4 4 3 3 3 4 4 3 2 2 1 0 1 1 1 0 1 1 1 1 1 2 1 0 0 0 1 0 0
0 0 1 1 1 2 2 1 2 2 3 5 5 5 4 3 3 2 3 3 2 3 2 1 0 0 1 0 0 0 0 0 1 1 1 3 0 0 0 0 0 0 0
0 0 -0 0 1 2 3 5 3 -0 0 1 2 3 4 4 4 2 3 2 1 1 0 0 0 0 0 0 0 0 0 0 -0 0 0 0 0 0 0 0 0 0 0
0 0 0 0 1 1 2 4 3 1 1 2 1 0 1 1 2 2 1 1 1 1 0 0 0 0 0 0 0 0 0 0 0 0 0 0 0 0 0 0 0 0 0
0 0 1 1 1 1 1 2 2 3 4 3 3 3 2 1 2 1 2 2 1 0 0 1 0 0 0 0 0 0 0 0 -0 0 0 0 0 0 0 0 0 0 0
0 0 1 1 1 1 1 1 1 1 2 5 3 3 1 3 2 3 2 0 0 0 0 0 0 0 0 0 0 0 0 0 -0 0 0 0 0 0 0 0 0 0 0
Wind_Speed_500mb
46 43 40 59 60 60 62 59 54 50 53 49 43 38 34 33 31 24 25 25 23 27 28 18 11 23 18 12 12 10 16 17 24 24 24 5 2 16 24 13 19 12 6
54 52 49 49 60 59 65 64 59 52 52 52 45 42 38 39 31 34 24 32 29 29 31 33 18 12 14 14 11 18 13 18 11 17 21 22 6 6 15 8 16 8 18
62 61 56 53 61 68 67 71 67 61 56 49 42 44 38 35 37 36 36 33 33 41 33 31 28 14 25 19 11 10 11 6 12 15 13 11 7 7 10 12 16 12 14
53 65 58 54 52 70 55 58 60 64 65 57 49 46 48 46 42 36 42 39 34 38 42 39 31 32 14 16 13 13 19 12 4 15 4 10 6 8 6 19 6 8 21
47 67 61 53 51 52 59 62 65 62 59 56 57 54 51 37 36 36 34 37 42 35 41 38 36 33 37 29 10 18 13 15 11 7 11 11 15 13 16 15 6 13 12
48 70 62 55 54 51 54 55 62 61 56 57 59 55 47 46 42 39 43 45 39 37 35 44 43 37 31 33 22 13 25 27 18 10 6 4 21 15 24 24 22 21 16
45 65 66 63 55 55 55 55 62 62 60 66 58 61 52 50 45 44 41 39 47 41 42 37 48 45 40 32 32 17 25 22 12 14 18 16 16 10 16 16 22 30 25
45 55 64 64 61 59 58 58 61 65 61 64 58 54 59 52 50 52 52 44 39 45 49 41 41 45 42 34 34 27 24 19 18 17 18 23 15 12 13 14 20 29 31
43 52 59 61 65 62 62 62 62 61 55 59 59 57 51 55 44 39 40 43 45 39 38 37 46 44 48 36 36 33 27 24 23 22 23 19 19 19 13 16 21 17 31
45 51 54 56 63 62 64 61 61 62 50 54 57 58 53 50 49 45 46 41 41 39 48 45 42 37 49 48 38 37 30 28 30 25 25 30 21 18 23 23 17 24 18
46 51 54 56 60 59 62 64 64 59 56 53 57 50 49 48 46 53 47 43 48 39 37 41 42 39 47 48 43 42 36 29 39 37 36 36 33 29 26 22 21 18 26
51 53 57 58 60 62 62 66 66 65 64 55 59 57 53 48 45 49 51 46 44 53 44 46 49 45 42 43 42 45 45 34 40 29 25 32 28 27 24 21 22 27 24
51 55 59 60 60 62 61 61 66 65 63 56 58 61 59 55 54 49 52 54 38 56 58 48 49 48 47 52 52 46 40 39 44 38 37 29 26 30 34 31 30 34 38
20 45 53 61 63 60 64 59 62 62 61 58 63 65 64 60 56 58 45 53 44 37 54 60 56 54 50 51 47 46 40 39 41 42 36 36 32 32 37 33 35 34 34
14 12 7 27 59 50 50 59 45 56 60 59 64 64 63 61 55 53 52 45 53 46 38 41 57 54 53 54 53 52 49 47 43 43 42 38 30 35 39 41 42 44 46
20 19 13 15 21 24 26 39 55 36 50 59 62 63 65 64 61 59 56 55 49 50 46 48 49 52 57 53 50 49 45 47 44 44 42 39 43 37 40 39 40 43 44
22 29 20 19 15 13 22 32 31 52 41 46 56 60 60 63 66 61 62 60 56 49 46 41 39 43 47 51 46 47 53 51 42 43 49 42 30 35 31 36 47 51 48
43 40 33 29 20 8 19 22 28 39 34 51 44 51 53 58 56 64 64 63 61 53 50 47 44 42 42 44 46 54 56 57 60 54 45 43 48 53 56 57 60 57 44
64 40 32 34 36 19 17 13 17 23 29 35 38 46 48 52 52 58 61 60 57 52 47 45 44 43 41 39 41 44 58 63 65 65 66 68 68 66 61 56 55 54 57
54 47 41 28 33 34 20 10 10 10 19 24 30 36 39 41 44 48 53 54 52 47 43 42 41 40 38 37 36 41 46 57 61 59 60 59 57 59 57 54 57 59 44
21 41 36 33 26 20 15 18 14 1 9 19 20 23 28 34 39 41 48 52 50 46 43 41 33 36 35 34 35 39 47 55 56 57 56 57 55 57 59 52 44 43 47
29 18 29 31 21 15 9 10 4 6 5 6 7 15 23 29 32 42 46 44 42 42 44 33 26 34 52 44 36 37 41 50 61 62 50 56 63 62 62 49 43 44 44
25 18 17 20 9 6 10 3 11 18 11 8 13 11 8 12 18 21 30 25 26 35 40 42 48 38 76 63 38 50 51 51 58 66 64 64 63 59 54 47 45 44 39
33 31 24 27 33 17 13 18 14 19 15 16 15 13 17 16 29 31 34 45 35 38 48 45 39 44 60 66 64 80 75 76 57 65 73 75 55 51 54 50 43 37 30
44 43 39 34 31 24 29 38 28 24 25 23 19 16 23 19 12 20 24 32 31 29 37 37 35 32 32 38 41 61 72 67 75 63 54 51 59 54 50 42 33 24 24
54 54 53 49 39 38 36 34 38 41 31 30 29 26 25 34 18 17 18 21 19 19 25 36 43 46 36 36 5 31 28 47 61 64 65 54 39 31 24 27 31 34 33
Wind_Direction_500mb
181 180 196 187 185 188 192 195 200 206 209 211 207 205 206 209 206 219 212 224 203 204 223 220 217 264 240 292 283 283 312 315 337 14 330 356 62 32 63 98 116 157 159
173 177 186 192 187 189 196 195 205 205 208 214 223 219 210 207 204 209 213 236 210 206 222 232 175 244 265 213 285 270 277 340 6 342 12 43 281 353 263 213 107 314 169
173 175 183 197 193 192 200 198 202 206 204 210 222 210 217 207 210 219 213 227 233 202 205 231 229 223 230 277 248 275 269 297 2 6 12 39 57 219 271 328 174 228 231
179 175 182 192 198 197 205 204 206 208 215 212 208 209 207 211 212 217 215 224 233 220 217 214 228 241 215 219 254 286 301 290 343 336 10 30 339 215 358 4 114 240 252
187 173 180 188 197 194 191 196 203 208 217 218 210 213 215 212 207 215 224 219 229 239 218 220 220 236 237 227 256 286 241 288 298 332 341 312 357 338 330 331 268 332 304
186 173 177 183 196 195 195 199 212 216 217 213 215 216 215 209 215 214 222 216 225 237 240 219 227 227 238 233 230 246 240 253 256 262 266 314 344 339 329 339 333 344 347
181 171 172 179 190 193 195 201 211 217 220 218 219 220 218 209 216 216 217 220 215 229 246 237 226 226 227 230 238 229 221 244 271 261 260 260 319 295 329 326 315 322 336
179 176 174 181 186 192 195 200 209 217 222 221 221 223 221 218 219 227 220 228 223 218 230 233 239 233 228 236 226 239 250 260 279 284 291 261 237 224 290 290 306 311 317
170 172 176 181 183 190 199 202 210 219 220 214 215 223 222 220 220 235 233 231 221 221 239 238 231 235 227 227 219 230 237 247 262 246 274 286 254 226 276 286 277 284 289
163 171 179 182 184 193 200 201 209 222 222 209 215 220 223 223 211 220 228 228 218 224 227 237 228 233 223 227 229 220 238 245 244 263 248 256 258 245 274 285 291 274 299
167 172 178 183 186 194 198 205 204 214 219 210 212 216 222 225 224 213 232 233 214 217 223 218 222 223 220 221 230 227 220 247 238 245 241 250 255 242 242 235 271 266 284
172 175 180 185 188 194 198 205 204 207 219 214 206 217 216 214 227 220 218 237 225 214 215 215 219 217 221 226 228 235 223 238 253 252 246 260 261 258 260 261 276 270 283
178 180 182 189 193 194 199 205 208 207 213 212 211 212 217 217 213 230 213 234 233 217 219 225 223 220 223 226 229 238 242 234 240 248 252 253 248 242 262 267 261 267 270
194 188 188 188 194 201 200 205 208 206 208 216 213 213 219 220 217 220 224 220 238 231 224 227 230 232 231 229 231 239 241 249 245 246 254 258 258 253 271 275 282 283 284
158 186 183 196 190 191 203 203 205 206 207 213 215 217 219 219 222 218 231 223 224 241 239 231 234 238 237 239 239 241 239 242 253 254 248 254 253 258 270 276 283 284 279
65 69 90 105 140 173 184 201 207 205 208 211 216 212 218 217 219 222 225 234 231 232 233 234 235 235 240 244 237 247 253 244 246 257 252 254 248 259 274 279 282 278 277
65 61 47 52 64 187 213 211 210 209 213 211 213 214 221 223 221 222 224 229 235 235 235 235 236 238 242 244 236 243 249 252 250 253 257 256 253 265 260 262 268 274 276
68 55 53 46 58 55 189 197 209 214 215 212 211 209 220 226 229 224 226 227 234 232 231 234 238 238 239 244 241 232 238 247 249 244 249 249 249 249 254 264 270 278 277
7 27 43 51 55 47 86 144 181 200 215 218 213 215 219 230 233 228 227 228 230 232 231 238 242 245 246 244 246 240 237 244 251 255 254 254 257 260 266 264 266 266 271
7 356 15 31 50 51 62 124 160 194 216 220 226 226 227 230 232 232 232 230 230 227 231 240 247 253 257 254 248 243 243 247 252 259 264 263 261 259 262 267 276 275 268
351 340 1 5 10 56 48 61 48 27 236 237 230 232 229 225 227 230 232 233 229 229 229 231 248 259 257 256 265 267 257 254 253 253 258 261 261 265 265 271 268 273 277
334 335 330 343 344 358 72 15 53 342 274 250 257 232 231 230 234 237 237 238 233 232 233 239 247 302 274 260 248 248 255 268 267 252 260 252 258 266 274 278 272 273 279
302 308 291 283 304 323 354 93 295 301 275 256 203 202 200 201 210 239 235 229 241 245 248 257 265 265 249 253 247 267 277 269 265 263 258 258 261 267 277 271 273 276 274
290 288 278 266 265 248 250 276 266 269 263 264 253 271 273 256 236 241 249 263 268 265 263 263 263 259 263 269 268 266 260 246 255 272 264 269 267 276 279 273 271 270 267
291 285 289 285 286 274 288 256 232 231 253 254 256 254 270 281 290 285 269 257 280 264 263 251 262 269 284 287 283 270 246 239 262 282 266 267 275 275 274 265 260 258 275
291 280 280 280 279 279 282 279 273 244 242 251 262 265 255 256 245 265 270 290 274 261 248 252 261 268 267 272 265 158 192 187 219 249 263 268 268 264 259 257 258 264 271
Wind_Speed_850mb
46 43 40 59 60 60 62 59 54 50 53 49 43 38 34 33 31 24 25 25 23 27 28 18 11 23 18 12 12 10 16 17 24 24 24 5 2 16 24 13 19 12 6
54 52 49 49 60 59 65 64 59 52 52 52 45 42 38 39 31 34 24 32 29 29 31 33 18 12 14 14 11 18 13 18 11 17 21 22 6 6 15 8 16 8 18
62 61 56 53 61 68 67 71 67 61 56 49 42 44 38 35 37 36 36 33 33 41 33 31 28 14 25 19 11 10 11 6 12 15 13 11 7 7 10 12 16 12 14
53 65 58 54 52 70 55 58 60 64 65 57 49 46 48 46 42 36 42 39 34 38 42 39 31 32 14 16 13 13 19 12 4 15 4 10 6 8 6 19 6 8 21
47 67 61 53 51 52 59 62 65 62 59 56 57 54 51 37 36 36 34 37 42 35 41 38 36 33 37 29 10 18 13 15 11 7 11 11 15 13 16 15 6 13 12
48 70 62 55 54 51 54 55 62 61 56 57 59 55 47 46 42 39 43 45 39 37 35 44 43 37 31 33 22 13 25 27 18 10 6 4 21 15 24 24 22 21 16
45 65 66 63 55 55 55 55 62 62 60 66 58 61 52 50 45 44 41 39 47 41 42 37 48 45 40 32 32 17 25 22 12 14 18 16 16 10 16 16 22 30 25
45 55 64 64 61 59 58 58 61 65 61 64 58 54 59 52 50 52 52 44 39 45 49 41 41 45 42 34 34 27 24 19 18 17 18 23 15 12 13 14 20 29 31
43 52 59 61 65 62 62 62 62 61 55 59 59 57 51 55 44 39 40 43 45 39 38 37 46 44 48 36 36 33 27 24 23 22 23 19 19 19 13 16 21 17 31
45 51 54 56 63 62 64 61 61 62 50 54 57 58 53 50 49 45 46 41 41 39 48 45 42 37 49 48 38 37 30 28 30 25 25 30 21 18 23 23 17 24 18
46 51 54 56 60 59 62 64 64 59 56 53 57 50 49 48 46 53 47 43 48 39 37 41 42 39 47 48 43 42 36 29 39 37 36 36 33 29 26 22 21 18 26
51 53 57 58 60 62 62 66 66 65 64 55 59 57 53 48 45 49 51 46 44 53 44 46 49 45 42 43 42 45 45 34 40 29 25 32 28 27 24 21 22 27 24
51 55 59 60 60 62 61 61 66 65 63 56 58 61 59 55 54 49 52 54 38 56 58 48 49 48 47 52 52 46 40 39 44 38 37 29 26 30 34 31 30 34 38
20 45 53 61 63 60 64 59 62 62 61 58 63 65 64 60 56 58 45 53 44 37 54 60 56 54 50 51 47 46 40 39 41 42 36 36 32 32 37 33 35 34 34
14 12 7 27 59 50 50 59 45 56 60 59 64 64 63 61 55 53 52 45 53 46 38 41 57 54 53 54 53 52 49 47 43 43 42 38 30 35 39 41 42 44 46
20 19 13 15 21 24 26 39 55 36 50 59 62 63 65 64 61 59 56 55 49 50 46 48 49 52 57 53 50 49 45 47 44 44 42 39 43 37 40 39 40 43 44
22 29 20 19 15 13 22 32 31 52 41 46 56 60 60 63 66 61 62 60 56 49 46 41 39 43 47 51 46 47 53 51 42 43 49 42 30 35 31 36 47 51 48
43 40 33 29 20 8 19 22 28 39 34 51 44 51 53 58 56 64 64 63 61 53 50 47 44 42 42 44 46 54 56 57 60 54 45 43 48 53 56 57 60 57 44
64 40 32 34 36 19 17 13 17 23 29 35 38 46 48 52 52 58 61 60 57 52 47 45 44 43 41 39 41 44 58 63 65 65 66 68 68 66 61 56 55 54 57
54 47 41 28 33 34 20 10 10 10 19 24 30 36 39 41 44 48 53 54 52 47 43 42 41 40 38 37 36 41 46 57 61 59 60 59 57 59 57 54 57 59 44
21 41 36 33 26 20 15 18 14 1 9 19 20 23 28 34 39 41 48 52 50 46 43 41 33 36 35 34 35 39 47 55 56 57 56 57 55 57 59 52 44 43 47
29 18 29 31 21 15 9 10 4 6 5 6 7 15 23 29 32 42 46 44 42 42 44 33 26 34 52 44 36 37 41 50 61 62 50 56 63 62 62 49 43 44 44
25 18 17 20 9 6 10 3 11 18 11 8 13 11 8 12 18 21 30 25 26 35 40 42 48 38 76 63 38 50 51 51 58 66 64 64 63 59 54 47 45 44 39
33 31 24 27 33 17 13 18 14 19 15 16 15 13 17 16 29 31 34 45 35 38 48 45 39 44 60 66 64 80 75 76 57 65 73 75 55 51 54 50 43 37 30
44 43 39 34 31 24 29 38 28 24 25 23 19 16 23 19 12 20 24 32 31 29 37 37 35 32 32 38 41 61 72 67 75 63 54 51 59 54 50 42 33 24 24
54 54 53 49 39 38 36 34 38 41 31 30 29 26 25 34 18 17 18 21 19 19 25 36 43 46 36 36 5 31 28 47 61 64 65 54 39 31 24 27 31 34 33
Wind_Direction_850mb
181 180 196 187 185 188 192 195 200 206 209 211 207 205 206 209 206 219 212 224 203 204 223 220 217 264 240 292 283 283 312 315 337 14 330 356 62 32 63 98 116 157 159
173 177 186 192 187 189 196 195 205 205 208 214 223 219 210 207 204 209 213 236 210 206 222 232 175 244 265 213 285 270 277 340 6 342 12 43 281 353 263 213 107 314 169
173 175 183 197 193 192 200 198 202 206 204 210 222 210 217 207 210 219 213 227 233 202 205 231 229 223 230 277 248 275 269 297 2 6 12 39 57 219 271 328 174 228 231
179 175 182 192 198 197 205 204 206 208 215 212 208 209 207 211 212 217 215 224 233 220 217 214 228 241 215 219 254 286 301 290 343 336 10 30 339 215 358 4 114 240 252
187 173 180 188 197 194 191 196 203 208 217 218 210 213 215 212 207 215 224 219 229 239 218 220 220 236 237 227 256 286 241 288 298 332 341 312 357 338 330 331 268 332 304
186 173 177 183 196 195 195 199 212 216 217 213 215 216 215 209 215 214 222 216 225 237 240 219 227 227 238 233 230 246 240 253 256 262 266 314 344 339 329 339 333 344 347
181 171 172 179 190 193 195 201 211 217 220 218 219 220 218 209 216 216 217 220 215 229 246 237 226 226 227 230 238 229 221 244 271 261 260 260 319 295 329 326 315 322 336
179 176 174 181 186 192 195 200 209 217 222 221 221 223 221 218 219 227 220 228 223 218 230 233 239 233 228 236 226 239 250 260 279 284 291 261 237 224 290 290 306 311 317
170 172 176 181 183 190 199 202 210 219 220 214 215 223 222 220 220 235 233 231 221 221 239 238 231 235 227 227 219 230 237 247 262 246 274 286 254 226 276 286 277 284 289
163 171 179 182 184 193 200 201 209 222 222 209 215 220 223 223 211 220 228 228 218 224 227 237 228 233 223 227 229 220 238 245 244 263 248 256 258 245 274 285 291 274 299
167 172 178 183 186 194 198 205 204 214 219 210 212 216 222 225 224 213 232 233 214 217 223 218 222 223 220 221 230 227 220 247 238 245 241 250 255 242 242 235 271 266 284
172 175 180 185 188 194 198 205 204 207 219 214 206 217 216 214 227 220 218 237 225 214 215 215 219 217 221 226 228 235 223 238 253 252 246 260 261 258 260 261 276 270 283
178 180 182 189 193 194 199 205 208 207 213 212 211 212 217 217 213 230 213 234 233 217 219 225 223 220 223 226 229 238 242 234 240 248 252 253 248 242 262 267 261 267 270
194 188 188 188 194 201 200 205 208 206 208 216 213 213 219 220 217 220 224 220 238 231 224 227 230 232 231 229 231 239 241 249 245 246 254 258 258 253 271 275 282 283 284
158 186 183 196 190 191 203 203 205 206 207 213 215 217 219 219 222 218 231 223 224 241 239 231 234 238 237 239 239 241 239 242 253 254 248 254 253 258 270 276 283 284 279
65 69 90 105 140 173 184 201 207 205 208 211 216 212 218 217 219 222 225 234 231 232 233 234 235 235 240 244 237 247 253 244 246 257 252 254 248 259 274 279 282 278 277
65 61 47 52 64 187 213 211 210 209 213 211 213 214 221 223 221 222 224 229 235 235 235 235 236 238 242 244 236 243 249 252 250 253 257 256 253 265 260 262 268 274 276
68 55 53 46 58 55 189 197 209 214 215 212 211 209 220 226 229 224 226 227 234 232 231 234 238 238 239 244 241 232 238 247 249 244 249 249 249 249 254 264 270 278 277
7 27 43 51 55 47 86 144 181 200 215 218 213 215 219 230 233 228 227 228 230 232 231 238 242 245 246 244 246 240 237 244 251 255 254 254 257 260 266 264 266 266 271
7 356 15 31 50 51 62 124 160 194 216 220 226 226 227 230 232 232 232 230 230 227 231 240 247 253 257 254 248 243 243 247 252 259 264 263 261 259 262 267 276 275 268
351 340 1 5 10 56 48 61 48 27 236 237 230 232 229 225 227 230 232 233 229 229 229 231 248 259 257 256 265 267 257 254 253 253 258 261 261 265 265 271 268 273 277
334 335 330 343 344 358 72 15 53 342 274 250 257 232 231 230 234 237 237 238 233 232 233 239 247 302 274 260 248 248 255 268 267 252 260 252 258 266 274 278 272 273 279
302 308 291 283 304 323 354 93 295 301 275 256 203 202 200 201 210 239 235 229 241 245 248 257 265 265 249 253 247 267 277 269 265 263 258 258 261 267 277 271 273 276 274
290 288 278 266 265 248 250 276 266 269 263 264 253 271 273 256 236 241 249 263 268 265 263 263 263 259 263 269 268 266 260 246 255 272 264 269 267 276 279 273 271 270 267
291 285 289 285 286 274 288 256 232 231 253 254 256 254 270 281 290 285 269 257 280 264 263 251 262 269 284 287 283 270 246 239 262 282 266 267 275 275 274 265 260 258 275
291 280 280 280 279 279 282 279 273 244 242 251 262 265 255 256 245 265 270 290 274 261 248 252 261 268 267 272 265 158 192 187 219 249 263 268 268 264 259 257 258 264 271